This is the latest recevied weather packets stored in our database for station/object W5CMS-13. If no packets are shown the sender has not sent any weather packets the latest 10 day(s).
| Time | Temp. | Humidity | Pressure | Rain* | Wind** | Luminosity | Snow |
|---|---|---|---|---|---|---|---|
| 1788393917 | 34.44° C | 55% | 1010.6 hPa | 0 mm | - | - | - |
| 1788393317 | 33.89° C | 56% | 1010.6 hPa | 0 mm | - | - | - |
| 1788392737 | 34.44° C | 56% | 1010.7 hPa | 0 mm | - | - | - |
| 1788392117 | 34.44° C | 55% | 1010.6 hPa | 0 mm | - | - | - |
| 1788391517 | 35° C | 54% | 1010.7 hPa | 0 mm | - | - | - |
| 1788390917 | 35.56° C | 52% | 1010.7 hPa | 0 mm | - | - | - |
| 1788390318 | 36.67° C | 48% | 1010.6 hPa | 0 mm | - | - | - |
| 1788389717 | 36.11° C | 48% | 1010.5 hPa | 0 mm | - | - | - |
| 1788389117 | 36.67° C | 47% | 1010.5 hPa | 0 mm | - | - | - |
| 1788388517 | 36.67° C | 47% | 1010.5 hPa | 0 mm | - | - | - |
| 1788387917 | 36.67° C | 47% | 1010.6 hPa | 0 mm | - | - | - |
| 1788387317 | 37.22° C | 46% | 1010.8 hPa | 0 mm | - | - | - |
| 1788386717 | 37.22° C | 46% | 1010.8 hPa | 0 mm | - | - | - |
| 1788386117 | 36.67° C | 47% | 1010.8 hPa | 0 mm | - | - | - |
| 1788385517 | 36.67° C | 46% | 1010.9 hPa | 0 mm | - | - | - |
| 1788384917 | 36.67° C | 46% | 1011 hPa | 0 mm | - | - | - |
| 1788384317 | 36.67° C | 46% | 1011.1 hPa | 0 mm | - | - | - |
| 1788383717 | 36.67° C | 47% | 1011.2 hPa | 0 mm | - | - | - |
| 1788383117 | 36.67° C | 47% | 1011.4 hPa | 0 mm | - | - | - |
| 1788382517 | 36.67° C | 47% | 1011.5 hPa | 0 mm | - | - | - |
| 1788381917 | 36.11° C | 47% | 1011.6 hPa | 0 mm | - | - | - |
| 1788381317 | 36.67° C | 47% | 1011.9 hPa | 0 mm | - | - | - |
| 1788380717 | 36.67° C | 46% | 1011.9 hPa | 0 mm | - | - | - |
| 1788380117 | 36.67° C | 48% | 1012.1 hPa | 0 mm | - | - | - |
| 1788379517 | 36.67° C | 47% | 1012.3 hPa | 0 mm | - | - | - |
* Rain latest hour (hover to see other rain measurements)
** Current wind speed in m/s (hover to see current wind gust speed)